Welcome to the New NWS' Forecast!
Most changes are behind the scenes, but click here for differences you might notice.
Latest weather observations around

Alexander City, Thomas C Russell Field Airport (KALX)

Using International System of Units (Switch to English Units)
Date/ Time (CDT) Wind (kph) Vis. (km) Weather Sky Cond. Temp (°C) Rel. Humidity Wind Chill (°C) Heat Index (°C) Pressure Precip. (cm)
Air Dwpt 6 hour Altimeter (hPa) Sea level (hPa) 1 hr 3 hr 6 hr
Max Min
Oct 18 12:55 ESE 5 16.09 Clear CLR 22 13     57%   21 1026.4        
Oct 18 12:35 NNE 8 16.09 Clear CLR 21 12     57%   21 1026.8        
Oct 18 12:15 NNE 8 11.27 Clear CLR 21 12     57%   21 1027.1        
Oct 18 11:55 NNE 8 16.09 Clear CLR 21 12     58%     1027.4        
Oct 18 11:35 E 9 16.09 Clear CLR 20 12     58%     1027.4        
Oct 18 11:15 ENE 11 16.09 Clear CLR 20 12     58%     1027.8        
Oct 18 10:55 E 9 16.09 Clear CLR 19 11     61%     1027.8        
Oct 18 10:35 NNE 8 16.09 Clear CLR 19 11     63%     1027.8        
Oct 18 10:15 Calm 16.09 Clear CLR 18 11     67%     1028.1        
Oct 18 09:55 N 9 16.09 Clear CLR 17 11     70%     1028.1        
Oct 18 09:35 NNE 11 16.09 Clear CLR 16 11     72%     1028.1        
Oct 18 09:15 NNE 9 16.09 Clear CLR 15 10     74%     1028.1        
Oct 18 08:55 NNE 15 16.09 Clear CLR 15 10     74%     1027.8        
Oct 18 08:35 NNE 11 16.09 Clear CLR 14 10     75%     1027.8        
Oct 18 08:15 NNE 15 16.09 Clear CLR 14 10     79%     1027.4        
Oct 18 07:55 NE 5 16.09 Clear CLR 13 10     80%     1027.4        
Oct 18 07:35 E 5 16.09 Clear CLR 13 10     82%     1027.1        
Oct 18 07:15 ESE 5 16.09 Clear CLR 13 10     84%     1026.8        
Oct 18 06:55 NE 11 16.09 Clear CLR 13 10     85%     1026.4        
Oct 18 06:35 N 5 16.09 Clear CLR 13 10     83%     1026.4        
Oct 18 06:15 NNE 8 16.09 Clear CLR 13 10     83%     1026.4        
Oct 18 05:55 NNE 8 16.09 Clear CLR 13 10     80%     1026.1        
Oct 18 05:35 NNE 8 16.09 Clear CLR 13 11     83%     1026.1        
Oct 18 05:15 N 8 16.09 Clear CLR 13 11     83%     1025.7        
Oct 18 04:55 NNE 8 16.09 Clear CLR 14 11     82%     1025.7        
Oct 18 04:35 NE 8 16.09 Clear CLR 14 11     81%     1026.1        
Oct 18 04:15 NNE 8 16.09 Clear CLR 14 11     79%     1026.1        
Oct 18 03:55 E 5 16.09 Clear CLR 14 11     81%     1026.1        
Oct 18 03:35 NNE 5 16.09 Clear CLR 14 11     85%     1026.1        
Oct 18 03:15 Calm 16.09 Clear CLR 14 12     90%     1026.1        
Oct 18 02:55 Calm 16.09 Clear CLR 14 12     87%     1026.1        
Oct 18 02:35 N 5 16.09 Clear CLR 14 12     87%     1026.1        
Oct 18 02:15 NE 5 16.09 Partly Cloudy SCT060 SCT100 15 12     86%     1025.7        
Oct 18 01:55 NE 5 16.09 Clear CLR 15 12     86%     1025.7        
Oct 18 01:35 NNE 5 16.09 Clear CLR 15 13     87%     1026.1        
Oct 18 01:15 Calm 16.09 Clear CLR 15 13     89%     1025.7        
Oct 18 00:55 NNE 8 16.09 Clear CLR 15 14     90%     1025.7        
Oct 18 00:35 N 8 16.09 Clear CLR 15 14     94%     1025.7        
Oct 18 00:15 Calm 16.09 Clear CLR 15 15     96%     1025.7        
Oct 17 23:55 Calm 16.09 Clear CLR 16 15     94%     1025.7        
Oct 17 23:35 N 5 16.09 Clear CLR 16 15     94%     1025.7        
Oct 17 23:15 N 8 16.09 Clear CLR 16 15     93%     1025.7        
Oct 17 22:55 Calm 16.09 Clear CLR 16 15     92%     1025.7        
Oct 17 22:35 Calm 16.09 Clear CLR 16 15     91%     1025.7        
Oct 17 22:15 NNW 5 16.09 Clear CLR 16 15     93%     1025.7        
Oct 17 21:55 Calm 16.09 Clear CLR 17 15     91%     1025.7        
Oct 17 21:35 NE 5 16.09 Clear   17 15     89%     1025.7        
Oct 17 21:15 Calm 16.09 Clear   17 15     88%     1025.7        
Oct 17 20:55 Calm 16.09 Clear   18 15     83%     1025.7        
Oct 17 20:35 N 5 16.09 Mostly Cloudy BKN060 18 15     80%     1025.4        
Oct 17 20:15 N 5 16.09 Cloudy OVC060 18 14     75%     1025.4        
Oct 17 19:55 NNE 5 16.09 Cloudy OVC060 18 13     69%     1025.1        
Oct 17 19:35 NNE 8 16.09 Cloudy OVC060 19 12     65%     1025.1        
Oct 17 19:15 NNE 11 16.09 Cloudy OVC060 19 11     61%     1025.1        
Oct 17 18:55 NNE 11 16.09 Cloudy BKN060 OVC075 20 10     55%     1024.7        
Oct 17 18:35 N 11 16.09 Mostly Cloudy BKN060 BKN075 20 17     84%     1024.7        
Oct 17 18:15 N 13 16.09 Cloudy OVC060 20 18     85%     1024.4        
Oct 17 17:55 N 13 16.09 Mostly Cloudy BKN060 21 18     86%     1024.1        
Oct 17 17:35 N 11 16.09 Mostly Cloudy BKN060 21 18     86%     1024.1        
Oct 17 17:15 N 13 16.09 Cloudy OVC060 21 18     86%     1023.7        
Oct 17 16:55 N 15 16.09 Cloudy OVC060 21 18     86%     1023.7        
Oct 17 16:35 N 15 16.09 Mostly Cloudy BKN060 21 18     85%     1023.7        
Oct 17 16:15 NNW 15 16.09 Cloudy OVC060 21 19     85%   22 1023.7        
Oct 17 15:55 N 18 16.09 Partly Cloudy SCT060 SCT090 22 19     84%   22 1023.7        
Oct 17 15:35 NNW 17 16.09 Partly Cloudy SCT060 22 19     81%   23 1023.4        
Oct 17 15:15 NNE 11 16.09 Clear CLR 22 19     83%   23 1023.4        
Oct 17 14:55 NNW 11 16.09 Partly Cloudy SCT050 22 19     83%   22 1023.4        
Oct 17 14:35 N 11 16.09 Mostly Cloudy BKN050 22 19     82%   22 1023.4        
Oct 17 14:15 N 11 16.09 Mostly Cloudy BKN050 22 19     83%   22 1023.4        
Oct 17 13:55 N 11 16.09 Mostly Cloudy BKN050 22 19     83%   22 1023.4        
Oct 17 13:35 N 5 16.09 Partly Cloudy SCT050 22 19     83%   22 1023.7        
Oct 17 13:15 N 15 16.09 Partly Cloudy SCT049 22 20     86%   23 1023.7        
Oct 17 12:55 NNW 15 16.09 Mostly Cloudy BKN049 22 20     88%   22 1024.1        
Oct 17 12:35 N 15 16.09 Cloudy SCT018 OVC049 22 20     88%   22 1024.4        
Oct 17 12:15 N 15 16.09 Mostly Cloudy SCT018 BKN049 22 20     87%   22 1024.4        
Oct 17 11:55 N 13 16.09 Mostly Cloudy BKN049 21 20     90%   22 1024.4        
Oct 17 11:35 N 15 16.09 Cloudy OVC049 21 20     91%     1024.7        
Oct 17 11:15 N 11 16.09 Cloudy OVC049 21 19     89%     1024.7        
Oct 17 10:55 Calm 16.09 Mostly Cloudy BKN049 21 19     89%     1024.4        
Oct 17 10:35 N 9 16.09 Mostly Cloudy SCT043 BKN049 20 19     93%     1024.4        
Oct 17 10:15 NE 11 16.09 Mostly Cloudy BKN044 20 19     92%     1024.4        
Oct 17 09:55 N 8 16.09 Cloudy OVC048 20 19     93%     1024.7        
Oct 17 09:35 NNE 5 16.09 Cloudy OVC050 20 19     93%     1024.4        
Oct 17 09:15 N 11 16.09 Cloudy SCT012 SCT027 OVC050 20 19     95%     1024.4        
Oct 17 08:55 NNE 9 16.09 Cloudy BKN012 BKN027 OVC050 20 19     95%     1024.1        
Oct 17 08:35 N 11 16.09 Mostly Cloudy BKN012 19 19     98%     1023.7        
Oct 17 08:15 N 11 16.09 Partly Cloudy SCT055 19 19     99%     1023.7        
Oct 17 07:55 N 8 16.09 Mostly Cloudy SCT028 SCT050 BKN065 19 19     99%     1023.4        
Oct 17 07:35 N 9 16.09 Cloudy SCT028 OVC050 19 19     100%     1023.4        
Oct 17 07:15 NNE 8 16.09 Mostly Cloudy BKN050 BKN090 19 19     100%     1023        
Oct 17 06:55 N 8 16.09 Cloudy OVC060 19 19     100%     1023        
Oct 17 06:35 N 9 16.09 Mostly Cloudy BKN060 BKN075 BKN100 19 19     100%     1023        
Oct 17 06:15 Calm 16.09 Mostly Cloudy SCT027 SCT044 BKN075 19 19     100%     1022.7        
Oct 17 05:55 NNE 8 16.09 Cloudy BKN027 OVC044 19 19     100%     1022.4        
Oct 17 05:35 N 11 16.09 Cloudy OVC027 19 19     100%     1022.4        
Oct 17 05:15 N 15 16.09 Cloudy SCT008 BKN027 OVC040 19 19     100%     1022        
Oct 17 04:55 N 11 16.09 Cloudy SCT008 BKN042 OVC050 19 19     100%     1022        
Oct 17 04:35 N 13 16.09 Mostly Cloudy SCT025 SCT044 BKN050 19 19     100%     1022        
Oct 17 04:15 N 11 16.09 Mostly Cloudy BKN049 BKN055 BKN080 19 19     100%     1021.7        
Oct 17 03:55 N 8 16.09 Mostly Cloudy SCT046 BKN060 20 19     98%     1021.3        
Oct 17 03:35 N 9 16.09 Cloudy SCT036 OVC046 20 19     98%     1021.3        
Oct 17 03:15 N 9 16.09 Cloudy SCT036 OVC046 19 19     100%     1021        
Oct 17 02:55 NE 8 16.09 Mostly Cloudy SCT038 BKN048 20 20     100%     1021        
Oct 17 02:35 Calm 16.09 Cloudy SCT040 BKN048 OVC055 20 20     99%     1021        
Oct 17 02:15 Calm 16.09 Mostly Cloudy SCT037 BKN048 BKN055 20 20     99%     1021        
Oct 17 01:55 N 5 16.09 Cloudy SCT035 OVC044 20 20     100%     1020.7        
Oct 17 01:35 Calm 16.09 Mostly Cloudy BKN035 BKN060 BKN080 20 20     100%     1020.7        
Oct 17 01:15 Calm 16.09 Partly Cloudy SCT060 20 20     100%     1020.7        
Oct 17 00:55 Calm 16.09 Partly Cloudy SCT075 20 20     100%     1020.7        
Oct 17 00:35 NNE 5 16.09 Partly Cloudy SCT075 20 20     99%     1020.7        
Oct 17 00:15 Calm 16.09 Mostly Cloudy SCT065 BKN075 20 20     100%     1020.7        
Oct 16 23:55 Calm 16.09 Partly Cloudy SCT065 SCT075 20 20     100%     1020.7        
Oct 16 23:35 Calm 16.09 Mostly Cloudy SCT050 BKN070 20 20     100%     1021.3        
Oct 16 22:55 NNE 8 16.09 Mostly Cloudy SCT055 BKN080 20 20     100%     1021.3        
Oct 16 22:35 N 8 16.09 Mostly Cloudy BKN011 BKN065 BKN080 20 20     100%     1021.7        
Oct 16 22:15 N 5 16.09 Cloudy OVC011 20 20     100%     1021.7        
Oct 16 21:55 N 13 16.09 Cloudy BKN011 OVC050 20 20     99%     1021.3        
Oct 16 21:35 NNE 13 16.09 Mostly Cloudy SCT011 BKN050 BKN060 20 20     99%     1021.3        
Oct 16 21:15 N 13 16.09 Mostly Cloudy SCT011 SCT060 BKN085 21 20     98%     1021.3        
Oct 16 20:55 N 17 16.09 Mostly Cloudy SCT010 SCT050 BKN075 21 21     96%   22 1021.3        
Oct 16 20:35 N 11 16.09 Mostly Cloudy SCT011 BKN055 BKN075 22 21     97%   22 1021        
Oct 16 20:15 N 9 16.09 Cloudy OVC011 22 22     98%   23 1021        
Oct 16 19:55 NNW 17 16.09 Mostly Cloudy BKN011 BKN060 23 22     98%   24 1021        
Oct 16 19:35 NNW 13 16.09 Clear   23 23     96%   24 1020.7        
Oct 16 19:15 NNW 9 16.09 Clear   24 23     96%   25 1020.3        
Oct 16 18:55 N 9 16.09 Clear   24 23     94%   25 1020        
Oct 16 18:35 NNW 8 16.09 Clear CLR 24 23     92%   25 1020        
Oct 16 18:15 NNW 11 16.09 Clear CLR 25 23     91%   26 1019.7        
Oct 16 17:55 NNW 9 16.09 Clear CLR 26 24     89%   27 1019.7        
Oct 16 17:35 NW 8 16.09 Clear CLR 26 24     87%   28 1019        
Oct 16 17:15 WNW 5 16.09 Partly Cloudy SCT060 27 24     87%   29 1019        
Oct 16 16:55 Calm 16.09 Partly Cloudy SCT032 SCT039 SCT048 27 24     85%   30 1019        
Oct 16 16:35 WNW 5 16.09 Mostly Cloudy SCT032 BKN055 27 24     81%   30 1019        
Oct 16 16:15 SW 8 16.09 Mostly Cloudy SCT031 BKN038 BKN055 28 24     81%   31 1019        
Oct 16 15:55 W 5 16.09 Partly Cloudy SCT028 SCT034 SCT042 28 24     81%   31 1018.6        
Oct 16 15:35 WSW 8 16.09 Clear CLR 29 23     73%   32 1018.6        
Oct 16 15:15 SSW 8 16.09 Clear CLR 29 23     74%   32 1018.6        
Oct 16 14:55 WSW 11 16.09 Partly Cloudy SCT034 SCT040 SCT049 28 24     75%   32 1018.6        
Oct 16 14:35 SW 9 16.09 Partly Cloudy SCT034 SCT040 SCT047 29 24     75%   32 1019        
Oct 16 14:15 SW 9 16.09 Partly Cloudy SCT034 SCT047 28 24     78%   32 1019        
Oct 16 13:55 SSW 13 16.09 Partly Cloudy SCT028 SCT032 SCT060 28 24     76%   32 1019        
Oct 16 13:35 Calm 16.09 Mostly Cloudy BKN028 BKN035 28 24     79%   32 1019.3        
Oct 16 13:15 Calm 16.09 Mostly Cloudy BKN030 BKN038 BKN045 27 24     81%   30 1019.7        
Oct 16 12:55 NNW 5 16.09 Partly Cloudy SCT030 SCT038 SCT045 27 24     82%   30 1020        
Oct 16 12:35 Calm 16.09 Clear CLR 28 24     79%   32 1020.3        
Oct 16 12:15 W 5 16.09 Clear CLR 27 24     81%   30 1020.3        
Oct 16 11:55 Calm 16.09 Partly Cloudy SCT022 27 24     81%   30 1020.7        
Oct 16 11:35 ESE 5 16.09 Partly Cloudy SCT020 SCT026 26 23     84%   28 1021        
Oct 16 11:15 N 11 16.09 Partly Cloudy SCT020 SCT026 26 23     87%   27 1021.3        
Oct 16 10:55 Calm 16.09 Mostly Cloudy SCT018 BKN024 25 23     87%   26 1021.3        
Oct 16 10:35 NNE 5 16.09 Mostly Cloudy BKN016 26 23     85%   28 1021.3        
Oct 16 10:15 Calm 16.09 Partly Cloudy SCT016 25 23     89%   25 1021.7        
Oct 16 09:55 NNE 5 16.09 Partly Cloudy SCT016 25        %     1021.3        
Oct 16 09:35 Calm 16.09 Mostly Cloudy BKN016 24 22     90%   25 1021.3        
Oct 16 09:15 Calm 16.09 Mostly Cloudy BKN016 23        %     1021.3        
Oct 16 08:55 NE 9 16.09 Cloudy OVC016 22 22     96%   23 1021.3        
Oct 16 08:35 Calm 16.09 Cloudy OVC016 22 22     99%   22 1021.3        
Oct 16 08:15 Calm 16.09 Cloudy OVC016 21 21     100%     1021        
Oct 16 07:55 N 8 16.09 Cloudy OVC014 21 21     100%     1021.3        
Oct 16 07:35 Calm 16.09 Cloudy OVC014 21 21     100%     1021        
Oct 16 07:15 NNE 5 16.09 Cloudy OVC016 21 21     100%     1020.7        
Oct 16 06:55 Calm 16.09 Cloudy BKN016 OVC035 20 20     100%     1020.7        
Oct 16 06:35 N 5 16.09 Cloudy SCT016 BKN035 OVC042 20 20     100%     1020.3        
Oct 16 06:15 N 5 16.09 Mostly Cloudy BKN033 BKN039 21 21     100%     1020        
Oct 16 05:55 NNW 5 16.09 Partly Cloudy SCT031 20 20     100%     1020        
Oct 16 05:35 Calm 16.09 Mostly Cloudy BKN033 BKN041 BKN060 21 21     100%     1019.7        
Oct 16 05:15 Calm 16.09 Cloudy OVC033 21 21     100%     1019.7        
Oct 16 04:55 Calm 16.09 Mostly Cloudy BKN033 BKN040 BKN050 21 21     100%     1019.7        
Oct 16 04:35 Calm 16.09 Mostly Cloudy BKN035 BKN043 BKN050 21 21     100%     1019.7        
Oct 16 04:15 Calm 16.09 Mostly Cloudy BKN037 20 20     100%     1019.7        
Oct 16 03:55 Calm 16.09 Clear CLR 20 20     100%     1019.7        
Oct 16 03:35 Calm 16.09 Clear CLR 21 21     100%     1019.7        
Oct 16 03:15 Calm 16.09 Clear CLR 21 21     100%     1019.7        
Oct 16 02:55 Calm 16.09 Partly Cloudy SCT095 21 21     100%     1019.7        
Oct 16 02:35 Calm 16.09 Partly Cloudy SCT095 21 21     100%     1020        
Oct 16 02:15 Calm 11.27 Partly Cloudy SCT085 20 20     100%     1020        
Oct 16 01:55 Calm 16.09 Mostly Cloudy BKN085 20 20     100%     1020        
Oct 16 01:35 Calm 8.05 Fog/Mist SCT085 20 20     100%     1019.7        
Oct 16 01:15 Calm 11.27 Partly Cloudy SCT085 21 21     100%     1019.7        
Oct 16 00:55 Calm 16.09 Clear CLR 21 21     100%     1019.7        
Oct 16 00:35 Calm 11.27 Clear CLR 21 21     100%     1019.7        
Oct 16 00:15 Calm 16.09 Partly Cloudy SCT090 21 21     100%     1020        
Oct 15 23:55 Calm 16.09 Clear CLR 21 21     100%     1020        
Oct 15 23:35 Calm 11.27 Clear CLR 21 21     100%   22 1019.7        
Oct 15 23:15 Calm 11.27 Clear CLR 22 22     100%   22 1020.3        
Oct 15 22:55 Calm 16.09 Clear CLR 22 22     100%   23 1020.3        
Oct 15 22:35 Calm 16.09 Partly Cloudy SCT100 21 21     100%   22 1020.7        
Oct 15 22:15 Calm 16.09 Clear CLR 22 22     100%   22 1021        
Oct 15 21:55 Calm 16.09 Clear CLR 21 21     100%     1020.7        
Oct 15 21:35 Calm 11.27 Partly Cloudy SCT100 21 21     100%     1020.7        
Oct 15 21:15 Calm 16.09 Clear CLR 22 22     100%   22 1020.7        
Oct 15 20:55 Calm 16.09 Clear CLR 21 21     100%   22 1020.7        
Oct 15 20:35 Calm 16.09 Clear CLR 22 22     100%   22 1020.3        
Oct 15 20:15 Calm 16.09 Clear CLR 22 22     100%   23 1020.3        
Oct 15 19:55 Calm 16.09 Partly Cloudy SCT085 22 22     100%   23 1020.3        
Oct 15 19:35 Calm 16.09 Partly Cloudy SCT085 22 22     100%   23 1020        
Oct 15 19:15 Calm 16.09 Partly Cloudy SCT085 23 23     100%   24 1019.7        
Oct 15 18:55 Calm 16.09 Partly Cloudy SCT075 SCT100 23 23     100%   24 1019.7        
Oct 15 18:35 Calm 16.09 Partly Cloudy SCT060 SCT080 SCT090 24 24     100%   25 1019.7        
Oct 15 18:15 Calm 16.09 Partly Cloudy SCT060 SCT080 24 24     98%   25 1019.7        
Oct 15 17:55 Calm 16.09 Partly Cloudy SCT080 25 24     94%   26 1019.7        
Oct 15 17:35 Calm 16.09 Partly Cloudy SCT080 SCT090 26 23     81%   28 1019.3        
Oct 15 17:15 N 8 16.09 Partly Cloudy SCT035 SCT041 SCT090 27 23     77%   29 1019.3        
Oct 15 16:55 Calm 16.09 Partly Cloudy SCT042 SCT075 SCT085 27 23     79%   30 1019.3        
Oct 15 16:35 WNW 5 16.09 Clear CLR 27 23     79%   29 1019.3        
Oct 15 16:15 Calm 16.09 Clear CLR 27 23     76%   29 1019        
Oct 15 15:55 Calm 16.09 Clear CLR 27 23     78%   30 1019.3        
Oct 15 15:35 NW 5 16.09 Clear CLR 27 23     79%   29 1019.3        
Oct 15 15:15 W 8 16.09 Partly Cloudy SCT031 SCT044 SCT050 27 23     80%   29 1019.3        
Oct 15 14:55 WSW 9 16.09 Partly Cloudy SCT075 27 23     78%   30 1019.3        
Oct 15 14:35 SW 8 16.09 Clear CLR 27 23     80%   29 1019.7        
Oct 15 14:15 W 9 16.09 Partly Cloudy SCT029 SCT039 SCT065 26 23     81%   29 1019.7        
Oct 15 13:55 SW 11 16.09 Partly Cloudy SCT039 SCT046 SCT060 27 23     79%   29 1019.7        
Oct 15 13:35 SSW 11 16.09 Partly Cloudy SCT026 SCT034 SCT042 27 23     79%   30 1019.7        
Oct 15 13:15 WSW 9 16.09 Mostly Cloudy BKN026 BKN034 BKN041 26 23     82%   28 1020        
Oct 15 12:55 SW 13 16.09 Mostly Cloudy SCT028 SCT040 BKN048 27 23     80%   29 1020        
Oct 15 12:35 SW 17 16.09 Mostly Cloudy SCT026 BKN031 BKN041 26 23     83%   28 1020.3        
Oct 15 12:15 SSW 13 16.09 Mostly Cloudy SCT037 BKN043 25 23     85%   26 1020.3        
Oct 15 11:55 SW 15 16.09 Mostly Cloudy SCT020 SCT028 BKN033 25 23     88%   26 1020.7        
Oct 15 11:35 SW 5 16.09 Mostly Cloudy SCT020 BKN025 BKN033 25 23     90%   26 1020.7        
Oct 15 11:15 SSW 9 16.09 Mostly Cloudy SCT018 BKN030 BKN042 25 23     89%   25 1021        
Oct 15 10:55 SW 11 16.09 Mostly Cloudy SCT018 SCT022 BKN028 24 23     90%   25 1021        
Oct 15 10:35 S 13 16.09 Mostly Cloudy SCT018 BKN026 SCT032 24 23     90%   25 1021        
Oct 15 10:15 SSW 15 16.09 Mostly Cloudy BKN016 BKN023 BKN029 24 22     92%   24 1021        
Oct 15 09:55 SSW 8 16.09 Mostly Cloudy SCT016 BKN025 BKN029 23 22     91%   24 1021        
Oct 15 09:35 Calm 16.09 Partly Cloudy SCT018 SCT026 SCT036 23 22     91%   24 1021        
Oct 15 09:15 Calm 16.09 Partly Cloudy SCT023 SCT028 SCT036 22 21     95%   23 1020.7        
Oct 15 08:55 S 5 16.09 Mostly Cloudy BKN025 BKN035 BKN041 21 21     97%     1020.7        
Oct 15 08:35 Calm 16.09 Mostly Cloudy SCT023 BKN037 20 20     99%     1020.7        
Oct 15 08:15 Calm 16.09 Mostly Cloudy SCT023 SCT027 BKN035 19 19     100%     1020.3        
Oct 15 07:55 Calm 16.09 Clear CLR 17 17     100%     1020.3        
Oct 15 07:35 Calm 16.09 Clear CLR 17 17     100%     1020        
Oct 15 07:15 Calm 16.09 Clear CLR 16 16     100%     1020        
Oct 15 06:55 Calm 16.09 Clear CLR 16 16     100%     1019.7        
Oct 15 06:35 Calm 16.09 Clear CLR 15 15     100%     1019.3        
Oct 15 06:15 Calm 16.09 Clear CLR 15 15     100%     1019.3        
Oct 15 05:55 Calm 16.09 Clear CLR 16 16     100%     1019.7        
Oct 15 05:35 Calm 16.09 Clear CLR 16 16     100%     1019.7        
Oct 15 05:15 Calm 16.09 Clear CLR 16 16     100%     1019.3        
Oct 15 04:55 Calm 16.09 Clear CLR 17 17     100%     1019        
Oct 15 04:35 Calm 16.09 Clear CLR 16 16     100%     1019        
Oct 15 04:15 Calm 16.09 Clear CLR 16 16     100%     1019        
Oct 15 03:55 Calm 16.09 Clear CLR 15 15     100%     1019        
Oct 15 03:35 Calm 16.09 Clear CLR 15 15     100%     1019        
Oct 15 03:15 Calm 16.09 Clear CLR 15 15     100%     1019        
Oct 15 02:55 Calm 16.09 Clear CLR 16 16     100%     1019.3        
Oct 15 02:35 Calm 16.09 Clear CLR 16 16     100%     1019.3        
Oct 15 02:15 Calm 16.09 Clear CLR 17 17     100%     1019.3        
Oct 15 01:55 Calm 16.09 Clear CLR 17 17     100%     1019.3        
Oct 15 01:35 Calm 16.09 Clear CLR 18 18     100%     1019.3        
Oct 15 01:15 Calm 16.09 Clear CLR 18 18     100%     1019.3        
Oct 15 00:55 Calm 16.09 Clear CLR 18 18     100%     1019.3        
Oct 15 00:35 N 5 16.09 Clear   18 18     100%     1019        
Oct 15 00:15 Calm 16.09 Clear CLR 18 18     100%     1019        
Oct 14 23:55 Calm 16.09 Clear   18 18     99%     1019        
Oct 14 23:35 Calm 16.09 Clear CLR 18 18     98%     1019        
Oct 14 23:15 Calm 16.09 Clear CLR 19 18     98%     1019.3        
Oct 14 22:55 Calm 16.09 Clear CLR 19 19     100%     1019.3        
Oct 14 22:35 Calm 16.09 Clear CLR 18 18     100%     1019.3        
Oct 14 22:15 Calm 16.09 Clear CLR 19 19     100%     1019.3        
Oct 14 21:55 Calm 16.09 Clear CLR 19 19     100%     1019.3        
Oct 14 21:35 Calm 16.09 Clear CLR 19 19     98%     1019        
Oct 14 21:15 Calm 16.09 Clear CLR 19 19     99%     1019        
Oct 14 20:55 Calm 16.09 Clear CLR 19 19     100%     1018.6        
Oct 14 20:35 Calm 16.09 Clear CLR 19 19     100%     1018.6        
Oct 14 20:15 Calm 16.09 Clear CLR 20 20     99%     1018.6        
Oct 14 19:55 Calm 16.09 Clear CLR 20 20     99%     1018.6        
Oct 14 19:35 Calm 16.09 Clear CLR 20 20     100%     1018.3        
Oct 14 19:15 Calm 16.09 Clear CLR 21 20     96%     1018        
Oct 14 18:55 Calm 16.09 Clear CLR 21 21     97%     1018        
Oct 14 18:35 Calm 16.09 Clear CLR 22 21     96%   23 1018        
Oct 14 18:15 Calm 16.09 Clear CLR 23 21     88%   24 1018        
Oct 14 17:55 Calm 16.09 Clear CLR 25 21     78%   25 1017.6        
Oct 14 17:35 Calm 16.09 Clear CLR 24        %     1017.3        
Oct 14 17:15 Calm 16.09 Clear CLR 25        %     1017.3        
Oct 14 16:55 Calm 16.09 Clear CLR 26 19     67%   26 1017.3        
Oct 14 16:35 Calm 16.09 Clear CLR 26 20     67%   26 1017.3        
Oct 14 16:15 Calm 16.09 Clear CLR 27 19     61%   28 1017.3        
Oct 14 15:55 Calm 16.09 Clear CLR 27 18     58%   28 1017.3        
Oct 14 15:35 SSE 5 16.09 Clear CLR 28 18     55%   29 1017.3        
Oct 14 15:15 S 9 16.09 Clear CLR 28 17     53%   29 1017.3        
Oct 14 14:55 SSW 13 16.09 Clear CLR 28 17     52%   29 1017.3        
Oct 14 14:35 SSW 8 16.09 Clear CLR 28 17     54%   28 1017.3        
Oct 14 14:15 SE 11 16.09 Clear CLR 27 18     57%   28 1017.3        
Oct 14 13:55 ESE 11 16.09 Clear CLR 27 18     58%   28 1017.3        
Oct 14 13:35 SE 8 16.09 Clear CLR 27 18     59%   28 1017.3        
Oct 14 13:15 SSE 8 16.09 Clear CLR 27 18     58%   28 1017.6        
Oct 14 12:55 SSE 9 16.09 Clear CLR 27 18     58%   28 1018        
Oct 14 12:35 SW 5 16.09 Clear CLR 27 18     59%   27 1018.3        
Oct 14 12:15 SW 9 16.09 Clear CLR 26 18     63%   26 1018.6        
Oct 14 11:55 SSW 9 16.09 Clear CLR 26 18     63%   26 1019        
Oct 14 11:35 SSE 13 16.09 Clear CLR 26 17     61%   26 1019        
Oct 14 11:15 SSW 8 16.09 Clear CLR 25 18     66%   25 1019        
Oct 14 10:55 SE 8 16.09 Clear CLR 24 18     67%   25 1019        
Oct 14 10:35 SSE 9 16.09 Clear CLR 24 18     69%   24 1019        
Oct 14 10:15 ESE 8 16.09 Clear CLR 23 18     73%   23 1019        
Oct 14 09:55 S 5 16.09 Clear CLR 22 18     75%   22 1018.6        
Oct 14 09:35 SE 11 16.09 Clear CLR 22 18     78%   22 1018.6        
Oct 14 09:15 E 8 16.09 Clear CLR 21 17     80%     1018.6        
Oct 14 08:55 NE 8 16.09 Clear CLR 20 17     84%     1018.6        
Oct 14 08:35 E 9 16.09 Clear CLR 19 17     90%     1018.3        
Oct 14 08:15 Calm 16.09 Clear CLR 18 17     93%     1019        
Oct 14 07:55 Calm 16.09 Partly Cloudy SCT100 17 17     98%     1018.6        
Oct 14 07:35 Calm 16.09 Clear CLR 16 16     100%     1018.3        
Oct 14 07:15 NNE 5 16.09 Clear CLR 16 16     100%     1017.6        
Oct 14 06:55 NE 5 16.09 Clear CLR 16 16     100%     1017.6        
Oct 14 06:35 Calm 16.09 Clear CLR 16 16     100%     1017.6        
Oct 14 06:15 Calm 16.09 Clear CLR 16 16     100%     1017.3        
Oct 14 05:55 Calm 16.09 Clear CLR 16 16     100%     1017.3        
Oct 14 05:35 E 5 16.09 Clear CLR 16 16     100%     1016.9        
Oct 14 05:15 Calm 16.09 Clear CLR 16 16     100%     1016.9        
Oct 14 04:55 Calm 16.09 Clear CLR 16 16     100%     1016.9        
Oct 14 04:35 Calm 16.09 Clear CLR 16 16     100%     1016.9        
Oct 14 04:15 Calm 16.09 Clear CLR 16 16     100%     1016.6        
Oct 14 03:55 E 5 16.09 Partly Cloudy SCT100 16 16     100%     1015.9        
Oct 14 03:35 Calm 16.09 Partly Cloudy SCT100 16 16     100%     1016.6        
Oct 14 03:15 Calm 16.09 Clear CLR 16 16     100%     1016.3        
Oct 14 02:55 Calm 16.09 Clear CLR 16 16     100%     1016.3        
Oct 14 02:35 Calm 16.09 Clear CLR 16 16     100%     1016.3        
Oct 14 02:15 Calm 16.09 Clear CLR 16 16     100%     1016.6        
Oct 14 01:55 Calm 16.09 Clear CLR 16 16     99%     1016.3        
Oct 14 01:35 Calm 16.09 Clear CLR 16 16     99%     1016.3        
Oct 14 01:15 NE 5 16.09 Clear CLR 16 16     100%     1016.3        
Oct 14 00:55 NNE 5 16.09 Clear CLR 17 17     99%     1016.3        
Oct 14 00:35 NE 5 16.09 Clear CLR 17 17     100%     1015.9        
Oct 14 00:15 Calm 16.09 Clear CLR 17 17     99%     1015.6        
Oct 13 23:55 Calm 16.09 Clear CLR 17 17     99%     1015.6        
Oct 13 23:35 Calm 16.09 Clear CLR 17 17     97%     1016.3        
Oct 13 23:15 Calm 16.09 Clear CLR 17 17     94%     1016.6        
Oct 13 22:55 Calm 16.09 Clear CLR 16 16     100%     1016.6        
Oct 13 22:35 Calm 16.09 Clear CLR 16 16     100%     1016.6        
Oct 13 22:15 Calm 16.09 Clear CLR 16 16     100%     1016.6        
Oct 13 21:55 Calm 16.09 Clear CLR 17 17     100%     1016.6        
Oct 13 21:35 Calm 16.09 Clear CLR 16 16     100%     1016.6        
Oct 13 21:15 Calm 16.09 Clear CLR 17 17     100%     1016.3        
Oct 13 20:55 Calm 16.09 Clear CLR 17 17     100%     1016.3        
Oct 13 20:35 Calm 16.09 Clear CLR 17 17     100%     1015.9        
Oct 13 20:15 Calm 16.09 Clear CLR 17 17     100%     1015.9        
Oct 13 19:55 Calm 16.09 Clear CLR 18 18     100%     1015.6        
Oct 13 19:35 Calm 16.09 Clear CLR 18 18     100%     1015.2        
Oct 13 19:15 Calm 16.09 Clear CLR 19 18     97%     1015.2        
Oct 13 18:55 Calm 16.09 Clear CLR 19 18     93%     1014.9        
Oct 13 18:35 Calm 16.09 Clear CLR 19 18     93%              
Oct 13 18:15 Calm 16.09 Clear CLR 20 18     90%     1014.2        
Oct 13 17:55 Calm 16.09 Clear CLR 22 18     80%   22 1014.2        
Oct 13 17:35 Calm 16.09 Clear CLR 23 17     69%   23 1014.2        
Oct 13 17:15 SSW 5 16.09 Clear CLR 24 16     64%   24 1014.2        
Oct 13 16:55 NNW 5 16.09 Partly Cloudy SCT048 24 16     63%   24 1014.2        
Oct 13 16:35 W 9 16.09 Partly Cloudy SCT050 24 17     63%   24 1014.2        
Oct 13 16:15 W 5 16.09 Partly Cloudy SCT050 24 16     62%   24 1014.6        
Oct 13 15:55 NNW 5 16.09 Partly Cloudy SCT046 24 16     62%   24 1014.2        
Oct 13 15:35 W 8 16.09 Partly Cloudy SCT046 24 17     62%   24 1014.2        
Oct 13 15:15 W 8 16.09 Partly Cloudy SCT046 24 17     63%   24 1014.2        
Oct 13 13:35 WNW 8 16.09 Partly Cloudy SCT045 23 15     62%   23 1015.2        
Oct 13 12:15 Calm 16.09 Clear CLR 22 14     61%   21 1015.9        
May 15 05:15 Calm 16.09 Clear CLR 20 20     100%     1015.6        
May 15 01:15 Calm 16.09 Clear CLR 21 21     100%     1014.9        
May 14 23:35 Calm 16.09 Clear CLR 21 21     100%     1015.2        
May 14 18:15 Calm 16.09 Clear CLR 29 23     70%   33 1014.6        
May 14 15:15 ENE 9 16.09 Clear CLR 32 20     50%   34 1015.2        
May 14 11:15 NE 8 16.09 Clear CLR 30 21     58%   32 1017.6        
May 14 07:35 NNE 5 16.09 Clear CLR 20 18     89%     1017.6        
May 13 14:55 NW 13 16.09 Clear CLR 32 17     42%   32 1018.3        
May 13 07:55 Calm 16.09 Clear CLR 22 18     78%   22 1021        
May 12 21:15 Calm 16.09 Clear CLR 20 19     91%     1019.7        
May 12 20:55 Calm 16.09 Clear CLR 21 19     89%     1019.7        
May 12 19:35 Calm 16.09 Clear CLR 25        %     1019        
May 12 17:55 WSW 9 16.09 Clear CLR 30 17     46%   31 1018.6        
May 12 17:15 W 11 16.09 Clear CLR 31 17     44%   31 1019        
May 12 15:55 SSW 5 16.09 Clear   31 17     44%   32 1019.7        
May 12 15:35 WSW 13 16.09 Clear CLR 32 18     44%   32 1019.7        
May 12 02:55 Calm 16.09 Clear CLR 16 16     100%     1019.7        
May 11 21:15 Calm 16.09 Clear CLR 21 19     88%     1019.7        
May 11 17:15 SW 8 16.09 Clear CLR 30 17     47%   31 1018.6        
May 11 13:35 W 5 16.09 Clear CLR 29 18     51%   30 1020.3        
May 11 10:55 WSW 5 16.09 Clear CLR 27 19     62%   29 1021.3        
Jun 12 07:15 Calm 16.09 Mostly Cloudy BKN004 23 22     94%   24 1022        
Jun 12 05:35 Calm 16.09 Mostly Cloudy BKN011 21 20     96%     1021.3        
Jun 12 01:15 Calm 16.09 Partly Cloudy SCT033 22 22     96%   23 1021        
Jun 11 17:55 ESE 5 16.09 Clear CLR 29 21     60%   31 1019        
Jun 11 16:55 SE 9 16.09 Clear   30 20     54%   33 1019.7        
Jun 11 16:15 SE 8 16.09 Clear CLR 30 20     54%   33 1020.3        
Jun 11 14:55 SE 9 16.09 Clear   30 20     54%   32 1020.7        
Notice The following observation data may not be complete
Jun 11 05:15   16.09 Clear CLR          %              
Jun 10 10:15 SE 5 16.09 Clear CLR 27 17     53%   28 1019.7        
Notice The following observation data may not be complete
Jun 09 16:15   16.09 Partly Cloudy SCT055 SCT065          %              
Jun 08 17:35 NNW 5 16.09 Clear CLR 26 14     46%   26 1011.2        
Notice The following observation data may not be complete
Jun 08 12:15   16.09 Clear CLR          %              
Notice The following observation data may not be complete
Jun 08 11:15   16.09 Partly Cloudy SCT035          %              
Jun 08 09:15 SE 5 16.09 Partly Cloudy SCT041 21 15     71%     1013.6        
Notice The following observation data may not be complete
Jun 08 07:55   16.09 Partly Cloudy SCT040 SCT090          %              
Jun 08 07:35 Calm 16.09 Clear CLR 18 15     83%     1013.2        
Jun 07 20:55 N 8 16.09 Clear CLR 22 15     63%   22 1010.8        
Jun 07 15:15 E 11 16.09 Partly Cloudy SCT032 SCT060 26 19     68%   26 1008.8        
Jun 07 10:55 E 9 16.09 Mostly Cloudy BKN024 BKN031 24 19     73%   25 1009.5        
Jun 06 03:35 Calm 8.05 Fog/Mist OVC004 22 21     99%   23 1008.8        
Jun 06 00:55 Calm 11.27 Cloudy OVC002 22 22     98%   23 1010.2       0
Notice The following observation data may not be complete
Jun 05 18:35   16.09 Partly Cloudy SCT012          %              
Jun 05 16:35 WSW 8 16.09 Partly Cloudy SCT018 25 21     82%   25 1010.2        
Jun 05 15:15 S 15 16.09 Partly Cloudy SCT040 26 21     75%   26 1009.5